Location: Andrest
(43.3200°N, 0.0641°E)
Time: 17:07:00
(UTC+00:00)

Daily predictions for brighter satellites

Satellite Brightness Start Highest point End
(mag) Time Altitude Azimuth Time Altitude Azimuth Time Altitude Azimuth
Cosmos 1745 Rocket 4.2 18:24:55 10° S 18:31:17 85° W 18:37:37 10° N
Cosmos 2344 4.5 18:25:19 10° WSW 18:32:34 52° NW 18:40:16 10° NNE
Okean O Rocket 2.6 18:29:15 10° S 18:33:33 53° W 18:37:52 10° NNW
ARGOS 3.2 18:28:24 10° SSE 18:33:45 87° ENE 18:39:08 10° NNW
Feng Yun 1-1 Rocket 4.2 18:29:19 10° SSE 18:34:44 83° ENE 18:40:09 10° NNW
ERBS 2.9 18:36:05 10° SSW 18:39:06 34° SE 18:42:07 10° ENE
Cosmos 1743 2.7 18:36:30 10° S 18:40:19 82° E 18:44:12 10° N
Cosmos 1975 4.0 18:38:49 10° SE 18:41:57 23° E 18:45:05 10° NE
Cosmos 1943 Rocket 3.8 18:41:38 10° ESE 18:43:36 12° E 18:45:34 10° ENE
Cosmos 968 Rocket 4.1 18:39:11 10° SSE 18:43:50 34° E 18:48:34 10° NE
OBJECT-B 2.6 18:41:59 10° ESE 18:44:00 16° ENE 18:46:00 10° NNE
Cosmos 1536 3.8 18:41:41 10° SSW 18:45:38 52° W 18:49:36 10° N
USA 215 3.4 18:39:11 10° SE 18:45:45 86° SW 18:52:22 10° NW
USA 305 3.5 18:42:16 10° WSW 18:46:25 59° NNW 18:50:36 10° NE
Lacrosse 5 rocket 3.9 18:45:04 10° NNW 18:47:36 14° N 18:50:07 10° NE
ISS -2.2 18:47:57 10° S 18:50:24 19° SE 18:52:24 12° E
CZ-2C R/B 3.3 18:48:27 10° N 18:53:50 64° WNW 18:59:19 10° SSW
Cosmos 921 Rocket 3.5 18:49:50 10° N 18:53:58 40° ENE 18:57:59 10° SE
USA 307 3.6 18:52:59 10° WSW 18:57:07 55° NNW 19:01:18 10° NE
SL-4 R/B 1.5 18:53:54 10° WNW 18:57:21 88° NE 19:00:24 14° ESE
Meteor 2-9 Rocket 4.4 18:56:07 10° S 19:01:47 57° E 19:07:32 10° NNE
Cosmos 1842 3.3 19:01:14 10° N 19:05:08 56° E 19:09:00 10° SSE
H-2A R/B 4.2 19:02:11 10° SSW 19:06:26 28° W 19:10:46 10° NW
USA 281 4.2 19:01:45 10° NE 19:06:37 22° E 19:11:26 10° SSE
SJ-6B 3.8 19:04:21 14° SE 19:07:15 30° ENE 19:10:52 10° N
Cosmos 1400 Rocket 4.3 19:07:16 17° ESE 19:08:31 19° E 19:11:25 10° NE
Cosmos 2221 Rocket 3.5 19:08:11 10° N 19:12:38 74° E 19:17:02 10° SSE
Cosmos 1378 Rocket 4.1 19:09:40 10° N 19:13:47 38° ENE 19:17:05 15° SE
USA 306 4.1 19:09:58 10° W 19:13:58 41° NNW 19:17:59 10° NE
YAOGAN 1 3.6 19:10:25 10° S 19:14:36 49° W 19:18:49 10° NNW
ATLAS CENTAUR R/B 3.8 19:12:43 10° N 19:15:00 13° NE 19:17:09 10° ENE
USA 308 4.0 19:12:06 10° W 19:16:08 42° NNW 19:20:13 10° NE
Cosmos 1674 4.5 19:16:05 10° NNE 19:18:01 15° ENE 19:18:01 15° ENE
CZ-3 Stage 3 4.5 18:53:13 10° SW 19:21:43 31° S 19:27:42 17° SE
Inspiration4 2.8 19:18:19 10° SW 19:22:29 53° SE 19:25:24 19° ENE
Okean-O 3.0 19:19:12 10° S 19:23:36 68° WSW 19:28:02 10° NNW
COSMOS 2406 3.5 19:17:57 10° NNW 19:23:43 73° WSW 19:29:26 10° SSE
Meteor 2-12 Rocket 4.4 19:20:53 10° S 19:26:57 67° E 19:33:01 10° NNE
Cosmos 1833 Rocket 3.3 19:21:49 10° NNW 19:27:19 57° WSW 19:32:48 10° S
Cosmos 1674 Rocket 3.5 19:23:43 10° N 19:28:04 62° E 19:31:38 14° SSE
Cosmos 2074 Rocket 4.0 19:24:24 10° S 19:30:32 63° E 19:36:44 10° NNE
CZ-4B R/B 2.1 19:27:37 10° N 19:30:33 49° WNW 19:33:30 10° SSW
Meteor 1-21 4.2 19:24:53 10° N 19:30:36 74° E 19:36:13 10° SSE
USA 186 1.2 19:30:09 47° SE 19:30:43 65° ENE 19:33:29 10° N
In-Cosmos 22 4.3 19:25:54 10° N 19:31:03 49° ENE 19:34:23 21° SE
Lacrosse 4 Rocket 2.6 19:29:35 10° SW 19:33:27 42° NW 19:37:20 10° NNE
USA 276 3.3 19:32:00 10° SSW 19:34:00 26° S 19:34:00 26° S
Cosmos 1932 4.4 19:29:17 10° SSW 19:35:34 83° ESE 19:41:51 10° NE
Cosmos 2082 Rocket 2.2 19:32:44 10° NNW 19:38:29 86° ENE 19:42:44 19° SSE
CSL-04 Rocket 3.8 19:34:12 10° S 19:39:28 72° WSW 19:44:52 10° NNW
Resurs 01 Rocket 2.9 19:40:22 24° ENE 19:40:26 24° ENE 19:43:57 10° NNE
Okean 2 3.2 19:39:39 10° N 19:43:45 85° E 19:46:18 22° S
Cosmos 2181 Rocket 4.5 19:39:30 10° NNW 19:45:34 62° W 19:51:40 10° S
CZ-4 R/B 4.2 19:46:37 10° SW 19:49:14 17° W 19:51:52 10° NW
Cosmos 1340 2.6 19:46:39 10° NNW 19:50:26 82° W 19:52:07 31° S
Helios 1A Rocket 3.0 19:49:39 45° ESE 19:50:36 57° ENE 19:54:38 10° N
Cosmos 836 Rocket 4.4 19:45:59 10° NNW 19:51:16 74° ENE 19:53:45 32° SSE
Cosmos 1733 Rocket 4.3 19:47:42 10° SSW 19:51:49 42° WNW 19:55:56 10° N
Cosmos 1782 Rocket 4.4 19:52:42 33° ENE 19:52:42 33° ENE 19:55:56 10° NNE
CSL-04 DEB 4.2 19:48:29 10° NNE 19:52:29 70° ESE 19:55:14 19° S
Ariane Rocket 3.2 19:53:08 39° ESE 19:54:27 48° ENE 19:59:20 10° N
Cosmos 2278 Rocket 3.8 19:53:37 10° WSW 19:58:49 36° NW 20:04:02 10° N
IRS-1A Rocket 4.4 19:57:02 34° SE 19:59:31 62° ENE 20:05:18 10° N
Cosmos 2297 3.6 19:55:57 10° S 20:01:33 63° ESE 20:07:11 10° NNE
Resurs 1-3 3.4 20:06:22 58° SE 20:07:10 78° ENE 20:11:34 10° N
Cosmos 2369 Rocket 4.3 20:12:18 12° NE 20:12:18 12° NE 20:12:48 10° NE
Cosmos 2184 Rocket 4.3 20:02:12 10° SSW 20:08:32 71° W 20:14:53 10° N
Cosmos 1626 3.8 20:05:42 10° N 20:07:23 22° NNE 20:07:23 22° NNE
SeaSat 1 3.8 20:05:24 11° S 20:09:41 35° WSW 20:14:12 10° NW
Cosmos 1346 Rocket 4.0 20:05:57 10° N 20:08:28 30° NNE 20:08:28 30° NNE
MOS 1 4.2 20:08:02 38° SSE 20:10:21 79° ENE 20:16:03 10° NNW
Cosmos 1503 Rocket 3.8 20:06:47 10° SSW 20:12:00 81° ESE 20:17:14 10° NNE
ERBS 4.3 20:12:20 10° W 20:15:10 26° NNW 20:16:21 21° N
SPOT 1/Viking Rocket 4.3 20:15:40 36° ENE 20:15:40 36° ENE 20:19:59 10° N
OBJECT-B 2.8 20:14:35 20° SW 20:15:52 26° W 20:18:38 10° NW
Landsat 7 4.0 20:16:04 53° ENE 20:16:04 53° ENE 20:20:33 10° N
Cosmos 962 Rocket 4.5 20:16:02 47° SE 20:17:22 56° E 20:23:24 10° NNE
Cosmos 1707 3.8 20:14:05 10° NNW 20:17:48 43° W 20:19:14 30° SW
COSMOS 2455 2.9 20:12:24 10° NNW 20:18:25 64° NE 20:19:34 53° ESE
IGS 5A 3.7 20:19:04 56° NNE 20:19:04 56° NNE 20:22:32 10° N
Cosmos 1238 Rocket 4.3 20:14:27 10° SSW 20:21:01 71° W 20:27:15 10° N
Cosmos 1975 Rocket 3.6 20:18:44 10° N 20:22:05 46° NNE 20:22:05 46° NNE
Cosmos 1354 Rocket 3.9 20:18:21 10° SSW 20:23:37 85° ESE 20:28:54 10° NNE
Cosmos 2327 Rocket 4.5 20:18:04 10° S 20:24:14 83° W 20:30:33 10° N
Cosmos 2154 Rocket 4.2 20:19:56 10° SSW 20:26:16 74° W 20:32:38 10° N
Cosmos 1943 Rocket 2.0 20:20:53 10° SSW 20:26:25 88° ESE 20:32:03 10° NNE
ISS -1.9 20:23:38 10° WSW 20:25:27 29° W 20:25:27 29° W
Lacrosse 5 rocket 3.1 20:24:23 10° NNW 20:28:07 25° NNE 20:28:07 25° NNE
Cosmos 1461 3.9 20:31:31 10° NNW 20:34:13 39° NNW 20:34:13 39° NNW
SL-4 R/B 4.4 20:34:40 10° WSW 20:35:57 13° WSW 20:35:57 13° WSW
EO 1 Delta rocket 3.8 20:36:54 73° WSW 20:37:03 74° W 20:41:54 10° NNW
Meteor 1-12 Rocket 4.3 20:40:16 40° SSW 20:42:37 83° WNW 20:48:40 10° N
Cosmos 1400 Rocket 4.4 20:42:44 22° WSW 20:44:42 34° WNW 20:48:29 10° N
USA 281 3.3 20:45:04 10° NNE 20:51:38 73° WNW 20:58:09 10° SW
SL-8 Rocket 4.0 20:52:19 66° NE 20:52:19 66° NE 20:57:56 10° NNE
ATLAS CENTAUR R/B 2.7 20:50:04 10° NNW 20:53:17 42° N 20:53:17 42° N
Cosmos 1339 Rocket 4.4 20:55:13 10° N 21:01:13 82° N 21:01:13 82° N
Inspiration4 4.4 20:58:48 10° W 21:01:36 32° WNW 21:01:36 32° WNW
Cosmos 2341 Rocket 4.1 21:03:33 67° SW 21:04:18 75° W 21:10:40 10° N
Meteor 2-5 Rocket 4.4 21:09:22 10° N 21:13:16 47° N 21:13:16 47° N
BREEZE-M DEB (TANK) 4.2 21:00:15 10° WNW 21:15:15 82° SSW 21:15:15 82° SSW
SPOT 3 Rocket 4.4 21:16:41 47° WNW 21:16:41 47° WNW 21:20:43 10° NNW
Resurs 01 Rocket 3.4 21:17:56 29° WNW 21:17:56 29° WNW 21:20:48 10° NNW
Cosmos 2218 Rocket 4.5 21:29:22 55° NNW 21:29:22 55° NNW 21:34:11 10° N
FALCON 9 R/B 4.4 20:47:09 10° WSW 21:29:27 40° SSW 21:31:02 39° S
Terra 4.0 21:35:09 19° N 21:35:09 19° N 21:36:36 10° N
Cosmos 2369 Rocket 3.8 21:54:02 29° N 21:54:02 29° N 21:57:09 10° NNE
